Tracking 29933 objects as of 2-Dec-2024
HD Live streaming from Space Station
objects crossing your sky now

STARLINK-30768

Track STARLINK-30768 now!
10-day predictions
STARLINK-30768 is classified as:


NORAD ID: 58120
Int'l Code: 2023-162C
Perigee: 565.4 km
Apogee: 566.9 km
Inclination: 43.0 °
Period: 95.8 minutes
Semi major axis: 6937 km
RCS: Unknown
Launch date: October 22, 2023
Source: United States (US)
Launch site: AIR FORCE EASTERN TEST RANGE (AFETR)
Your satellite tracking list
Your tracking list is empty




NASA's NSSDC Master Catalog

Two Line Element Set (TLE):
1 58120U 23162C   24336.43091241  .00009042  00000-0  68329-3 0  9998
2 58120  43.0017 130.3317 0001115 265.0328  95.0387 15.02552095 62526
Source of the keplerian elements: AFSPC